Terminal Aerodrome Forecast
Issued by NWS Birmingham, AL

Home | Current Version | Previous Version | Text Only | Print | Product List | Glossary On
Versions: 1 2 3 4 5 6 7 8 9 10 11 12 13 14 15 16
000
FTUS44 KBMX 302014 AAA
TAFBHM
TAF AMD
KBHM 302014Z 3020/3118 35008KT P6SM VCTS SCT050CB
     FM310000 01006KT P6SM SKC=

USA.gov is the U.S. government's official web portal to all federal, state and local government web resources and services.